Regional Weather Roundup
Issued by NWS

Home | Current Version | Previous Version | Text Only | Print | Product List | Glossary On
Versions: 1 2 3 4 5 6 7 8 9 10 11 12 13 14 15 16 17 18 19 20 21 22 23 24 25 26 27 28 29 30 31 32 33 34 35 36 37 38 39 40 41 42 43 44 45 46 47 48 49 50
000
ASUS44 KJAN 271410
RWRMS

MISSISSIPPI HOURLY WEATHER ROUNDUP
NATIONAL WEATHER SERVICE JACKSON MS
900 AM CDT THU JUL 27 2017

NOTE: "FAIR: INDICATES FEW OR NO CLOUDS BELOW 12,000 FEET WITH NO
SIGNIFICANT WEATHER AND/OR OBSTRUCTIONS TO VISIBILITY.

MSZ001>002-007>008-010>013-018>021-025>028-034>036-271500-
NORTHWEST MISSISSIPPI

CITY           SKY/WX    TMP DP  RH WIND       PRES   REMARKS
BATESVILLE     FAIR      83  74  74 SW6       30.04F
CLARKSDALE       N/A     84  81  89 S6        30.04S HX  98
CLEVELAND      FAIR      83  81  91 W8        30.05R HX  97
GREENWOOD      SUNNY     83  76  79 W7        30.05S HX  91
GREENVILLE     SUNNY     83  75  77 W10       30.05R HX  90
OLIVE BRANCH   PTSUNNY  N/A N/A N/A CALM      30.03S
OXFORD         FAIR      82  72  69 SW6       30.07F
TUNICA           N/A     81  75  83 SW6       30.03F
WINONA         FAIR      80  76  88 CALM      30.07R
$$

MSZ003>006-009-014>017-022>024-029>033-037>039-271500-
NORTHEAST MISSISSIPPI

CITY           SKY/WX    TMP DP  RH WIND       PRES   REMARKS
COLUMBUS AFB   MOSUNNY   84  78  82 W5        30.05S HX  96
CORINTH        FAIR      82  73  74 CALM      30.05S
STARKVILLE     FAIR      82  73  74 CALM      30.08S HAZE
TUPELO         MOSUNNY   85  71  63 CALM      30.05S HX  90
$$

MSZ040-058-271500-
CENTRAL MISSISSIPPI

CITY           SKY/WX    TMP DP  RH WIND       PRES   REMARKS
JACKSON INTL   SUNNY     83  76  79 W5        30.08R HX  91
JACKSON HAWKNS SUNNY     84  77  79 W6        30.08R HX  94
MADISON        FAIR      82  73  74 W3        30.08R
MERIDIAN KEY   SUNNY     84  74  71 CALM      30.07F HX  91
MERIDIAN NAS   SUNNY     86  71  60 CALM      30.07S HX  91
RAYMOND        FAIR      82  77  83 W7        30.08R HX  91
$$

MSZ059>079-271500-
SOUTH MISSISSIPPI

CITY           SKY/WX    TMP DP  RH WIND       PRES   REMARKS
COLUMBIA       FAIR      81  75  83 NW5       30.11R
HATTIESBURG    SUNNY     84  75  74 N6        30.08R HX  92
LAUREL         FAIR      82  76  82 N5        30.08R
MCCOMB         SUNNY     81  75  82 NW8       30.10R
NATCHEZ        MOSUNNY   81  76  84 W5        30.10R
PINE BELT      SUNNY     84  73  70 N5        30.09S HX  91
$$

MSZ080>082-271500-
COASTAL MISSISSIPPI

CITY           SKY/WX    TMP DP  RH WIND       PRES   REMARKS
BAY ST LOUIS   SUNNY     81  75  83 NW6       30.07R
BILOXI         SUNNY     83  73  72 NE3       30.06R
PASCAGOULA     SUNNY     85  74  69 VRB6      30.06R HX  92
GULFPORT       SUNNY     86  72  62 N5        30.06R HX  92
$$

LAZ007>009-015>016-023>026-271500-
NORTHEAST LOUISIANA

CITY           SKY/WX    TMP DP  RH WIND       PRES   REMARKS
BASTROP        FAIR      84  78  83 W8        30.07S HX  95
TALLULAH/VBURG SUNNY     83  77  82 VRB3      30.07R HX  92
VIDALIA        FAIR      80  77  91 W7        30.08R
$$



USA.gov is the U.S. government's official web portal to all federal, state and local government web resources and services.